星链-32264 (STARLINK-32264)

导读

STARLINK-32264是美国星链(Starlink)项目的低轨互联网卫星,于2024年10月23日发射入轨,归属于SpaceX的卫星互联网星座组网。它承担为全球偏远地区、海洋及高纬度区域提供高速低时延宽带接入服务,是星链大规模部署中,补充覆盖、增强星座容量和服务能力的组成单元。

Basic Information
目录编号:
61642
目录名称:
STARLINK-32264
国际标识:
2024-191X
轨道中心:
EARTH
卫星名称:
星链-32264
卫星全名:
星链-32264 (STARLINK-32264)
卫星状态:
在轨 (已飞行689 天)
发射日期:
2024-10-23 UTC
国别 :
美国 (US)
星等 :
--
This satellite is enrolled in the Space Conjunction Data Service (SCDS) and the current flight risk assessment level is: No High Risk
Orbit Information
数据来源 国际轨道数据 AOE轨道数据
星历时间 2026-09-12T04:00:01+0800
7小时前
查看轨道信息
2026-09-06T22:00:00+0800
5天前
查看轨道信息
半长轴 6718.261km 6721.91km
偏心率 0.0026886 0.0025949
轨道倾角 42.984° 42.986°
近地点辐角 224.463° 188.557°
升交点赤经 141.240° 173.133°
平近点角 135.143° 229.524°
近地点 322.061km 326.33km
远地点 358.187km 361.216km
周期 91.337分钟 91.411分钟
每日圈数 15.765855 15.753019
Detailed Information
固有亮度:
5
最大亮度:
2.5
卫星平台:
Starlink V1.0
覆盖范围:
全球
运营商:
太空探索技术公司
运营商所在国:
美国
制造商(研发单位):
太空探索技术公司
制造商所在国:
美国
使用方式:
暂无
Satellite Introduction
Starlink 计划是 SpaceX 推出的全球卫星互联网项目,通过发射低轨道卫星,为全球尤其是偏远地区提供高速、低延迟的互联网服务。自 2019 年起,Starlink 已部署数千颗卫星,旨在缩小全球数字鸿沟,推动互联网普及。该项目还为军事、航空等行业提供通信支持,带来广泛经济效益。
2D Orbit Map
3D Orbit Map
Orbit Altitude Analysis Chart
Orbit Inclination Analysis Chart
Orbit Comprehensive Analysis Chart
View Comprehensive Chart
Miss Distance Evolution Trend with All Objects
Collision Probability Evolution Trend with All Objects